FENGYUN 1C DEB

Satellite information

Favourite Embed

Satellite Type and Status

DEBRISIN ORBIT

Key statistics

Satellite FENGYUN 1C DEB at a glance.

Uptime

9553

Days in orbit

Revolutions

≈ 14.2

Per day

Orbit

SSO

Sun Synchronous Orbit

Inclination

98.7

Latest

Satellite identification and parameters

Extended collection of information and parameters for FENGYUN 1C DEB.

Object identification

Identified? True

Debris? True

Object name: FENGYUN 1C DEB

International designator: 1999-025DEL

Object number (NORAD): 33651

Object ID (CCSDS): 33651

Country: PEOPLES REPUBLIC OF CHINA (PRC)

Current information (Y/N): Y

RCS size: SMALL

Orbital parameters

Period: 101.394 minutes

Inclination: 98.6787 deg

SMA: 7202.788 km

Apoapsis: 909.356 km

Periapsis: 739.951 km

RAAN: 230.6795 deg

Eccentricy: 0.0117597

Argument of periapsis: 168.9778 deg

Mean anomaly: 191.4017 deg

Mean motion: 14.20207433 rev/day

Mean motion (dot): 0.00000213 rev/day2

B* drag term: 0.00011165 1/REarth

Two-line elements (TLE)

Creation date: June 30, 2025, 10:36 p.m.

Reference frame: TEME

Reference center: EARTH

Epoch: June 30, 2025, 8:39 p.m. UTC

TLE line 0: 0 FENGYUN 1C DEB

TLE line 1: 1 33651U 99025DEL 25181.86102250 .00000213 00000-0 11165-3 0 9997

TLE line 2: 2 33651 98.6787 230.6795 0117597 168.9778 191.4017 14.20207433911676

Live tracking on map

Real-time ground track for satellite FENGYUN 1C DEB.

In-orbit conjunctions

A list of the most updated potential collisions computed for object FENGYUN 1C DEB.

Target Orbit TCA Probability of collision Miss distance Type
COSMOS 2251 DEB LEO 2024-12-04 03:37:17 0.0001884803 80.0 (m) DEBRIS
COSMOS 1275 DEB LEO 2024-11-15 18:06:07 0.0001222939 306.0 (m) DEBRIS

Associated space launch

Chinese polar orbiting meteorological satellite

FENGYUN 1C DEB was lifted into orbit during the mission ‘Long March 4B | Feng Yun 1C’, on board a Long March 4B space rocket.

The launch took place on May 10, 1999, 1:33 a.m. from Launch Complex 7.

For more information about the launch, click the button.

Launch to space Long March 4B | Feng Yun 1C
Long March 4B | Feng Yun 1C

Agency: N/A

Status: Launch Successful

Launch date: May 10, 1999, 1:33 a.m. UTC

Rocket: Long March 4B

Launch pad: Launch Complex 7

Location: Taiyuan Satellite Launch Center, People's Republic of China

...

Latest news about this satellite

There are no fresh news available about this satellite. Check back as we update our databases every day.


Newsletter sign-up

Weekly statistics, charts and insights to help you stay on top of the space industry.